SCP
0 0 0 0 0 0 0 0 0 0 0 0 0 0 0 0 0 0 0 0 0 0 0 0 0 0 0 0 0 0 0 0 0 0 0 0 0 0 0 0 0 0 0 0 1
-0 0 0 0 0 0 0 0 0 0 0 0 0 0 0 0 0 0 0 0 0 0 0 0 0 0 0 0 0 0 0 0 0 0 0 0 0 0 0 0 0 0 0 1 1
0 0 0 0 0 0 0 0 0 0 0 0 0 0 0 0 0 0 0 -0 0 0 0 0 0 0 0 0 0 0 0 0 0 0 0 0 0 -0 -0 0 0 0 0 0 0
0 0 0 0 0 0 0 0 0 -0 -0 0 0 0 0 0 0 0 0 0 0 0 0 0 0 0 0 0 0 0 0 0 0 0 0 0 0 0 -0 0 0 0 0 0 0
0 -0 -0 -0 0 -0 -0 -0 -0 -0 -0 0 0 0 0 0 0 0 -0 0 0 0 0 0 0 0 0 0 0 0 0 0 0 0 0 0 0 0 -0 -0 -0 0 0 0 0
0 0 0 -0 -0 0 -0 -0 -0 -0 -0 -0 -0 0 0 0 0 0 0 0 0 0 0 0 0 0 0 0 0 0 0 0 0 0 0 0 0 0 -0 -0 -0 0 0 0 0
0 0 -0 -0 -0 0 0 0 -0 -0 -0 -0 0 0 0 0 0 0 0 0 0 0 0 0 0 0 0 0 0 0 0 0 0 0 0 0 0 0 -0 -0 -0 -0 -0 0 0
0 0 0 0 0 0 -0 0 -0 0 -0 0 0 0 0 0 0 0 0 0 0 -0 0 0 0 0 0 0 0 0 0 0 0 0 0 0 0 0 -0 -0 -0 -0 0 0 0
0 0 0 0 0 0 0 0 0 0 0 0 0 0 0 0 0 0 0 0 -0 -0 0 0 0 0 0 0 0 0 0 0 0 0 0 -0 0 0 0 -0 -0 0 0 -0 0
0 0 0 0 0 0 0 0 0 0 0 0 0 0 0 0 0 0 0 -0 0 -0 -0 0 0 0 0 0 0 0 0 0 0 0 0 -0 0 0 0 -0 0 0 0 0 0
0 0 0 0 0 0 0 0 0 0 0 0 0 0 0 0 0 0 0 0 0 0 0 -0 0 -0 -0 0 0 0 0 0 0 0 0 0 0 -0 -0 0 0 0 0 0 0
0 0 0 0 0 0 0 0 0 0 0 0 0 -0 -0 -0 0 0 0 0 0 0 0 0 -0 -0 0 0 0 0 0 0 0 0 0 0 0 0 0 0 0 0 0 0 0
0 0 0 0 0 0 0 0 0 0 0 0 0 0 -0 0 0 0 0 0 0 0 0 0 0 0 0 0 0 0 0 0 0 0 0 0 0 0 0 0 0 0 0 0 0
0 0 0 0 0 0 0 0 0 0 0 0 0 0 0 0 0 0 0 0 0 0 0 0 0 0 0 0 0 0 0 0 0 0 0 0 0 0 0 0 0 0 0 0 0
0 0 0 0 0 0 0 0 0 0 0 0 0 0 0 0 0 0 0 0 0 0 0 0 0 0 0 0 0 -0 0 0 0 0 0 0 0 0 0 0 0 0 0 0 0
0 0 0 0 0 0 0 0 0 0 0 0 0 0 0 0 0 0 0 0 0 0 0 0 0 0 0 0 0 0 0 0 0 0 0 0 0 0 0 0 0 0 0 0 0
0 0 0 0 0 0 0 0 0 0 0 0 0 0 0 0 0 0 0 0 0 0 0 0 0 0 0 0 0 0 0 0 0 0 0 0 0 0 0 0 0 0 0 0 0
0 0 0 0 0 0 0 0 0 0 0 0 0 0 0 0 0 0 0 0 0 0 0 0 0 0 0 0 0 0 0 0 0 0 0 0 0 0 0 0 0 0 0 0 0
0 0 0 0 0 0 0 0 0 0 0 0 0 0 0 0 0 0 0 0 0 0 0 0 0 0 0 0 0 0 0 0 0 0 0 0 0 0 0 0 0 0 0 0 0
0 0 0 0 0 0 0 0 0 0 0 0 0 0 0 0 0 0 0 0 0 0 0 0 0 0 0 0 0 0 0 0 0 0 0 0 0 0 0 0 0 0 0 0 0
0 0 0 0 0 0 0 0 0 0 0 0 0 0 0 0 0 0 0 0 0 0 0 0 0 0 0 0 0 0 0 0 0 0 0 0 0 0 0 0 0 0 0 0 0
0 0 0 0 0 0 0 0 0 0 0 0 0 0 0 0 0 0 0 0 0 0 0 0 0 0 0 0 0 0 0 0 0 0 0 0 0 0 0 0 0 0 0 0 0
0 0 0 0 0 0 0 0 0 0 0 0 0 0 0 0 0 0 0 0 0 0 0 0 0 0 0 0 0 0 0 0 0 0 0 0 0 0 0 0 0 0 0 0 0
0 0 0 0 0 0 0 0 0 0 0 0 0 0 0 0 0 0 0 0 0 0 0 0 0 0 0 0 0 0 0 0 0 0 0 0 0 0 0 0 0 0 0 0 0
0 0 0 0 0 0 0 0 0 0 0 0 0 0 0 0 0 0 0 0 0 0 0 0 0 0 0 0 0 0 0 0 0 0 0 0 0 0 0 0 0 0 0 0 0
0 0 0 0 0 -0 0 0 0 0 0 0 0 0 0 0 0 0 0 0 0 0 0 0 0 0 0 0 0 0 0 0 0 0 0 0 0 0 0 0 0 0 0 0 0
0 0 0 0 0 0 0 0 0 0 0 0 0 0 0 0 0 0 0 0 0 0 0 0 0 0 0 0 0 0 0 0 0 0 0 0 0 0 0 0 0 0 0 0 0
Wind_Speed_500mb
36 36 37 36 36 37 38 38 36 35 36 35 37 36 38 41 44 49 60 46 37 27 37 27 52 46 30 15 20 14 6 15 18 14 6 8 6 10 18 31 11 4 12 16 51
38 35 35 35 35 37 37 39 39 39 38 38 37 38 37 40 48 57 36 23 24 28 49 31 55 58 21 17 15 10 9 17 15 10 9 14 18 21 17 34 21 16 7 31 46
36 34 35 35 36 37 38 39 42 43 44 42 41 38 35 36 45 14 1 5 12 41 47 29 36 55 14 14 19 7 8 12 22 16 16 8 30 27 12 6 24 39 8 18 44
36 34 35 36 38 39 41 43 43 48 48 44 45 39 31 26 11 2 14 23 21 44 50 40 26 30 12 12 11 4 15 32 21 10 9 10 31 45 26 32 38 41 22 19 27
40 40 40 41 43 45 46 47 47 49 49 43 42 38 23 18 49 37 28 36 31 57 66 49 41 35 14 12 6 11 7 20 12 10 8 13 29 40 79 55 42 32 38 18 28
44 46 48 48 50 51 53 51 50 51 48 38 38 30 20 14 18 20 27 25 39 68 66 55 34 33 21 7 17 13 33 18 19 16 5 7 32 42 97 49 45 50 59 53 21
45 49 51 54 53 54 56 54 50 55 42 30 31 20 24 51 24 26 21 26 41 68 68 49 20 40 9 7 25 38 6 15 12 24 8 11 33 36 109 66 65 55 59 54 40
49 51 52 51 53 51 51 53 60 46 29 21 19 17 25 18 24 32 16 16 42 45 55 45 22 30 8 7 6 13 10 8 10 19 10 32 24 56 91 37 74 83 64 57 50
49 51 53 51 48 46 50 58 43 19 12 14 17 16 26 16 25 21 17 6 35 36 31 28 39 9 11 3 6 2 11 12 11 27 15 31 18 32 57 21 81 78 77 69 67
51 53 53 50 44 45 56 40 11 2 7 11 7 12 24 10 6 16 23 12 28 29 20 10 5 9 5 7 9 9 11 12 25 21 39 41 42 33 65 65 75 80 90 92 86
53 52 54 53 48 52 43 4 4 7 25 28 14 17 8 9 6 18 27 35 16 24 11 11 9 14 22 23 18 10 7 8 10 10 11 26 34 36 46 30 40 54 72 82 76
52 52 53 55 50 40 14 4 2 8 22 40 54 52 57 46 14 16 32 27 15 13 6 7 14 20 21 13 10 9 7 8 10 7 12 16 24 18 13 15 37 58 66 73 57
55 53 53 52 47 19 13 3 9 24 10 19 37 40 45 25 21 21 40 29 12 15 14 13 9 11 11 9 11 9 10 9 10 6 2 8 11 9 2 15 18 34 45 51 46
54 50 49 53 29 13 16 7 18 8 4 11 12 14 23 20 10 29 42 32 7 21 16 9 8 13 10 11 14 10 16 13 7 8 7 3 5 9 10 14 9 9 9 23 16
57 53 49 46 53 43 17 13 8 6 8 9 9 13 27 25 12 22 48 33 15 12 12 11 5 5 7 14 17 18 13 16 10 12 9 1 9 12 8 9 6 11 9 9 12
65 56 51 52 51 39 21 12 13 5 14 9 16 13 13 9 5 16 21 34 17 11 4 14 6 5 8 5 8 2 9 13 9 8 4 10 11 9 8 5 10 9 23 17 17
65 65 53 54 51 19 22 17 3 9 8 10 10 12 11 12 8 11 11 11 12 11 9 4 7 7 6 3 4 9 11 6 6 4 8 4 5 11 7 3 7 7 13 13 11
65 63 60 53 41 32 6 5 9 11 13 2 7 12 13 14 11 12 14 8 1 8 7 12 7 13 6 9 11 4 10 11 12 8 5 7 6 5 9 14 13 24 23 28 33
68 62 55 30 18 39 17 6 12 12 11 1 4 8 10 9 11 10 12 11 15 14 13 9 3 3 3 7 10 6 6 6 13 8 6 4 6 9 9 11 21 29 32 29 26
70 64 27 18 31 49 8 17 12 7 13 9 10 7 13 14 11 13 17 5 10 11 3 11 7 1 2 5 10 7 10 7 6 9 6 6 6 9 8 10 11 14 23 25 25
49 31 26 2 41 27 11 14 12 28 9 6 9 7 4 12 8 8 14 4 8 6 8 8 8 5 4 6 9 5 5 12 9 7 9 6 10 7 6 3 12 13 30 36 36
25 9 7 31 4 4 6 10 11 15 26 3 8 11 10 9 8 6 8 5 11 9 8 5 8 6 3 9 3 4 7 10 9 7 3 7 9 2 13 13 16 21 24 26 27
32 16 2 17 7 5 9 14 19 24 0 4 6 4 2 6 10 7 8 10 10 9 14 10 4 5 11 9 9 5 4 8 10 6 12 11 9 7 12 13 12 16 16 13 13
13 8 10 10 7 7 10 10 16 18 3 8 4 9 3 12 11 9 6 12 11 10 17 9 6 7 12 7 6 7 6 5 9 6 7 9 5 11 9 10 6 10 6 4 10
8 7 4 7 2 9 11 7 8 8 6 3 6 8 17 2 4 9 7 5 12 13 10 8 8 4 4 6 3 3 7 7 9 9 11 8 14 16 6 14 8 4 3 6 15
8 9 14 13 20 9 9 9 10 6 13 2 10 15 11 5 9 13 12 4 2 12 7 7 6 4 5 8 7 6 12 13 13 11 12 11 13 8 10 12 5 9 11 12 23
13 17 13 12 9 6 1 10 14 2 22 24 17 21 17 2 4 22 19 13 13 11 5 6 10 6 5 6 8 9 11 12 7 3 7 14 13 7 4 7 10 21 22 19 39
Wind_Direction_500mb
331 326 325 326 324 322 321 321 321 322 321 321 320 310 308 308 302 292 278 284 283 271 251 223 199 203 210 220 209 204 150 208 194 161 200 102 7 357 352 353 311 301 279 201 172
332 328 325 324 323 321 320 319 319 317 316 313 314 314 299 305 306 290 299 275 256 223 223 217 199 201 196 208 217 178 193 214 188 164 118 18 355 331 3 343 12 25 117 166 186
332 331 329 328 326 323 322 319 316 315 313 307 306 309 295 304 314 285 296 284 251 209 210 209 209 203 193 199 200 219 222 221 211 180 94 62 330 273 343 331 338 319 358 193 195
330 328 326 325 322 322 321 320 315 313 311 302 299 303 286 291 284 289 295 282 269 205 192 191 193 179 156 200 209 315 243 228 231 203 75 37 336 307 280 281 298 305 288 212 221
325 323 320 319 317 317 316 317 314 312 309 298 292 294 271 263 260 285 284 283 247 194 188 183 175 179 178 190 173 195 295 256 195 125 122 23 310 276 276 288 297 283 308 292 216
320 319 317 314 312 312 312 312 311 309 304 293 287 275 236 253 280 289 291 287 238 195 185 185 190 173 193 207 185 205 219 266 192 117 157 156 279 274 275 271 290 293 294 286 246
321 319 316 314 311 310 309 309 309 306 293 280 281 239 242 251 275 277 306 307 216 189 180 189 175 181 194 172 242 217 176 250 206 165 156 121 291 255 263 277 288 290 282 278 252
327 324 320 316 314 313 312 311 311 299 275 261 249 219 256 263 250 250 264 275 192 187 186 176 187 211 230 277 95 140 135 229 221 158 189 137 237 258 260 262 292 284 274 262 250
327 326 324 321 320 318 315 315 311 291 251 228 197 218 263 252 236 226 215 222 190 177 153 183 192 239 291 70 21 324 197 189 282 186 182 197 228 254 261 241 258 267 278 270 253
326 327 327 324 320 317 317 317 297 284 165 171 200 257 251 243 172 235 196 183 170 205 216 161 155 144 43 94 225 213 219 185 209 203 193 208 237 230 245 237 227 232 244 254 248
325 327 326 326 323 318 318 309 150 234 215 210 195 229 246 254 228 208 187 167 135 154 182 213 146 198 215 194 208 204 212 188 204 163 129 199 210 220 235 224 226 228 236 245 247
324 325 327 326 325 316 310 235 323 306 288 259 247 251 257 264 294 180 182 151 170 205 157 100 238 225 211 204 191 201 219 245 275 222 161 183 218 218 191 233 228 233 230 236 244
326 326 325 324 321 299 284 282 293 310 254 274 234 235 244 229 221 211 182 168 156 185 189 172 211 183 191 183 186 214 186 212 206 29 274 98 334 310 209 245 254 241 234 231 239
323 322 321 318 318 294 275 285 323 196 311 255 223 244 189 190 232 214 205 177 173 181 166 216 241 195 185 222 174 230 209 212 186 101 223 115 235 291 275 292 285 25 224 230 248
321 318 317 313 303 287 252 306 307 123 315 180 183 168 174 174 152 198 194 178 174 154 117 237 210 191 168 211 169 227 195 202 195 160 130 267 101 264 311 272 316 319 360 346 288
320 318 315 308 296 296 239 278 164 48 246 207 143 167 134 203 223 149 164 193 183 139 164 210 236 224 224 163 207 205 93 46 68 118 165 203 147 265 202 249 301 325 331 314 291
321 318 308 294 283 297 192 181 91 204 301 192 183 163 156 168 195 163 163 170 161 138 172 183 224 261 178 150 319 80 69 13 4 2 215 317 122 210 255 275 235 288 1 26 29
321 315 310 297 277 221 204 79 222 241 238 180 141 123 167 158 210 175 136 176 245 126 133 167 243 189 182 168 181 59 138 152 190 178 232 2 263 285 346 337 66 74 68 72 71
323 320 317 302 220 190 184 196 220 230 278 305 79 152 211 176 148 142 172 194 194 174 164 149 240 23 146 151 131 194 69 158 100 16 72 256 296 355 351 21 47 46 60 58 69
334 324 310 322 183 164 129 232 235 251 325 319 210 209 176 174 134 153 160 171 177 197 129 197 163 16 252 122 36 110 153 68 20 132 201 289 274 206 193 43 29 25 44 67 83
345 327 329 164 156 169 198 223 246 273 344 274 262 234 200 164 138 152 171 88 81 44 98 126 120 266 42 27 155 46 88 53 106 112 154 162 254 290 112 97 97 58 73 81 79
347 322 56 165 287 195 214 206 264 276 311 262 248 205 180 166 121 130 132 70 117 61 75 352 121 141 113 308 260 88 168 140 131 198 110 140 266 332 103 100 100 104 92 84 80
322 278 338 211 287 296 305 266 291 281 230 356 295 304 147 135 112 113 113 4 102 90 167 198 328 62 355 3 12 90 128 118 106 97 189 161 245 167 110 88 85 124 113 91 64
308 314 325 28 67 345 323 288 312 322 80 89 72 327 62 23 12 119 101 28 45 98 90 100 86 149 185 164 158 138 122 124 114 140 192 212 242 210 149 152 129 121 115 50 3
262 268 32 319 342 308 291 295 295 326 8 67 61 59 60 46 13 100 83 97 44 6 50 85 121 121 124 106 115 213 227 195 186 189 179 211 217 240 211 186 148 56 234 307 331
287 326 343 285 295 280 16 320 319 353 349 358 134 98 89 211 273 175 120 117 135 22 61 19 115 90 66 55 62 240 235 225 231 228 243 235 251 240 133 130 27 330 297 305 332
317 316 300 294 317 347 155 306 289 108 353 348 120 109 102 236 73 96 94 105 137 125 97 81 127 104 221 355 326 289 239 219 159 93 208 216 245 154 56 359 330 314 308 317 336
Wind_Speed_850mb
36 36 37 36 36 37 38 38 36 35 36 35 37 36 38 41 44 49 60 46 37 27 37 27 52 46 30 15 20 14 6 15 18 14 6 8 6 10 18 31 11 4 12 16 51
38 35 35 35 35 37 37 39 39 39 38 38 37 38 37 40 48 57 36 23 24 28 49 31 55 58 21 17 15 10 9 17 15 10 9 14 18 21 17 34 21 16 7 31 46
36 34 35 35 36 37 38 39 42 43 44 42 41 38 35 36 45 14 1 5 12 41 47 29 36 55 14 14 19 7 8 12 22 16 16 8 30 27 12 6 24 39 8 18 44
36 34 35 36 38 39 41 43 43 48 48 44 45 39 31 26 11 2 14 23 21 44 50 40 26 30 12 12 11 4 15 32 21 10 9 10 31 45 26 32 38 41 22 19 27
40 40 40 41 43 45 46 47 47 49 49 43 42 38 23 18 49 37 28 36 31 57 66 49 41 35 14 12 6 11 7 20 12 10 8 13 29 40 79 55 42 32 38 18 28
44 46 48 48 50 51 53 51 50 51 48 38 38 30 20 14 18 20 27 25 39 68 66 55 34 33 21 7 17 13 33 18 19 16 5 7 32 42 97 49 45 50 59 53 21
45 49 51 54 53 54 56 54 50 55 42 30 31 20 24 51 24 26 21 26 41 68 68 49 20 40 9 7 25 38 6 15 12 24 8 11 33 36 109 66 65 55 59 54 40
49 51 52 51 53 51 51 53 60 46 29 21 19 17 25 18 24 32 16 16 42 45 55 45 22 30 8 7 6 13 10 8 10 19 10 32 24 56 91 37 74 83 64 57 50
49 51 53 51 48 46 50 58 43 19 12 14 17 16 26 16 25 21 17 6 35 36 31 28 39 9 11 3 6 2 11 12 11 27 15 31 18 32 57 21 81 78 77 69 67
51 53 53 50 44 45 56 40 11 2 7 11 7 12 24 10 6 16 23 12 28 29 20 10 5 9 5 7 9 9 11 12 25 21 39 41 42 33 65 65 75 80 90 92 86
53 52 54 53 48 52 43 4 4 7 25 28 14 17 8 9 6 18 27 35 16 24 11 11 9 14 22 23 18 10 7 8 10 10 11 26 34 36 46 30 40 54 72 82 76
52 52 53 55 50 40 14 4 2 8 22 40 54 52 57 46 14 16 32 27 15 13 6 7 14 20 21 13 10 9 7 8 10 7 12 16 24 18 13 15 37 58 66 73 57
55 53 53 52 47 19 13 3 9 24 10 19 37 40 45 25 21 21 40 29 12 15 14 13 9 11 11 9 11 9 10 9 10 6 2 8 11 9 2 15 18 34 45 51 46
54 50 49 53 29 13 16 7 18 8 4 11 12 14 23 20 10 29 42 32 7 21 16 9 8 13 10 11 14 10 16 13 7 8 7 3 5 9 10 14 9 9 9 23 16
57 53 49 46 53 43 17 13 8 6 8 9 9 13 27 25 12 22 48 33 15 12 12 11 5 5 7 14 17 18 13 16 10 12 9 1 9 12 8 9 6 11 9 9 12
65 56 51 52 51 39 21 12 13 5 14 9 16 13 13 9 5 16 21 34 17 11 4 14 6 5 8 5 8 2 9 13 9 8 4 10 11 9 8 5 10 9 23 17 17
65 65 53 54 51 19 22 17 3 9 8 10 10 12 11 12 8 11 11 11 12 11 9 4 7 7 6 3 4 9 11 6 6 4 8 4 5 11 7 3 7 7 13 13 11
65 63 60 53 41 32 6 5 9 11 13 2 7 12 13 14 11 12 14 8 1 8 7 12 7 13 6 9 11 4 10 11 12 8 5 7 6 5 9 14 13 24 23 28 33
68 62 55 30 18 39 17 6 12 12 11 1 4 8 10 9 11 10 12 11 15 14 13 9 3 3 3 7 10 6 6 6 13 8 6 4 6 9 9 11 21 29 32 29 26
70 64 27 18 31 49 8 17 12 7 13 9 10 7 13 14 11 13 17 5 10 11 3 11 7 1 2 5 10 7 10 7 6 9 6 6 6 9 8 10 11 14 23 25 25
49 31 26 2 41 27 11 14 12 28 9 6 9 7 4 12 8 8 14 4 8 6 8 8 8 5 4 6 9 5 5 12 9 7 9 6 10 7 6 3 12 13 30 36 36
25 9 7 31 4 4 6 10 11 15 26 3 8 11 10 9 8 6 8 5 11 9 8 5 8 6 3 9 3 4 7 10 9 7 3 7 9 2 13 13 16 21 24 26 27
32 16 2 17 7 5 9 14 19 24 0 4 6 4 2 6 10 7 8 10 10 9 14 10 4 5 11 9 9 5 4 8 10 6 12 11 9 7 12 13 12 16 16 13 13
13 8 10 10 7 7 10 10 16 18 3 8 4 9 3 12 11 9 6 12 11 10 17 9 6 7 12 7 6 7 6 5 9 6 7 9 5 11 9 10 6 10 6 4 10
8 7 4 7 2 9 11 7 8 8 6 3 6 8 17 2 4 9 7 5 12 13 10 8 8 4 4 6 3 3 7 7 9 9 11 8 14 16 6 14 8 4 3 6 15
8 9 14 13 20 9 9 9 10 6 13 2 10 15 11 5 9 13 12 4 2 12 7 7 6 4 5 8 7 6 12 13 13 11 12 11 13 8 10 12 5 9 11 12 23
13 17 13 12 9 6 1 10 14 2 22 24 17 21 17 2 4 22 19 13 13 11 5 6 10 6 5 6 8 9 11 12 7 3 7 14 13 7 4 7 10 21 22 19 39
Wind_Direction_850mb
331 326 325 326 324 322 321 321 321 322 321 321 320 310 308 308 302 292 278 284 283 271 251 223 199 203 210 220 209 204 150 208 194 161 200 102 7 357 352 353 311 301 279 201 172
332 328 325 324 323 321 320 319 319 317 316 313 314 314 299 305 306 290 299 275 256 223 223 217 199 201 196 208 217 178 193 214 188 164 118 18 355 331 3 343 12 25 117 166 186
332 331 329 328 326 323 322 319 316 315 313 307 306 309 295 304 314 285 296 284 251 209 210 209 209 203 193 199 200 219 222 221 211 180 94 62 330 273 343 331 338 319 358 193 195
330 328 326 325 322 322 321 320 315 313 311 302 299 303 286 291 284 289 295 282 269 205 192 191 193 179 156 200 209 315 243 228 231 203 75 37 336 307 280 281 298 305 288 212 221
325 323 320 319 317 317 316 317 314 312 309 298 292 294 271 263 260 285 284 283 247 194 188 183 175 179 178 190 173 195 295 256 195 125 122 23 310 276 276 288 297 283 308 292 216
320 319 317 314 312 312 312 312 311 309 304 293 287 275 236 253 280 289 291 287 238 195 185 185 190 173 193 207 185 205 219 266 192 117 157 156 279 274 275 271 290 293 294 286 246
321 319 316 314 311 310 309 309 309 306 293 280 281 239 242 251 275 277 306 307 216 189 180 189 175 181 194 172 242 217 176 250 206 165 156 121 291 255 263 277 288 290 282 278 252
327 324 320 316 314 313 312 311 311 299 275 261 249 219 256 263 250 250 264 275 192 187 186 176 187 211 230 277 95 140 135 229 221 158 189 137 237 258 260 262 292 284 274 262 250
327 326 324 321 320 318 315 315 311 291 251 228 197 218 263 252 236 226 215 222 190 177 153 183 192 239 291 70 21 324 197 189 282 186 182 197 228 254 261 241 258 267 278 270 253
326 327 327 324 320 317 317 317 297 284 165 171 200 257 251 243 172 235 196 183 170 205 216 161 155 144 43 94 225 213 219 185 209 203 193 208 237 230 245 237 227 232 244 254 248
325 327 326 326 323 318 318 309 150 234 215 210 195 229 246 254 228 208 187 167 135 154 182 213 146 198 215 194 208 204 212 188 204 163 129 199 210 220 235 224 226 228 236 245 247
324 325 327 326 325 316 310 235 323 306 288 259 247 251 257 264 294 180 182 151 170 205 157 100 238 225 211 204 191 201 219 245 275 222 161 183 218 218 191 233 228 233 230 236 244
326 326 325 324 321 299 284 282 293 310 254 274 234 235 244 229 221 211 182 168 156 185 189 172 211 183 191 183 186 214 186 212 206 29 274 98 334 310 209 245 254 241 234 231 239
323 322 321 318 318 294 275 285 323 196 311 255 223 244 189 190 232 214 205 177 173 181 166 216 241 195 185 222 174 230 209 212 186 101 223 115 235 291 275 292 285 25 224 230 248
321 318 317 313 303 287 252 306 307 123 315 180 183 168 174 174 152 198 194 178 174 154 117 237 210 191 168 211 169 227 195 202 195 160 130 267 101 264 311 272 316 319 360 346 288
320 318 315 308 296 296 239 278 164 48 246 207 143 167 134 203 223 149 164 193 183 139 164 210 236 224 224 163 207 205 93 46 68 118 165 203 147 265 202 249 301 325 331 314 291
321 318 308 294 283 297 192 181 91 204 301 192 183 163 156 168 195 163 163 170 161 138 172 183 224 261 178 150 319 80 69 13 4 2 215 317 122 210 255 275 235 288 1 26 29
321 315 310 297 277 221 204 79 222 241 238 180 141 123 167 158 210 175 136 176 245 126 133 167 243 189 182 168 181 59 138 152 190 178 232 2 263 285 346 337 66 74 68 72 71
323 320 317 302 220 190 184 196 220 230 278 305 79 152 211 176 148 142 172 194 194 174 164 149 240 23 146 151 131 194 69 158 100 16 72 256 296 355 351 21 47 46 60 58 69
334 324 310 322 183 164 129 232 235 251 325 319 210 209 176 174 134 153 160 171 177 197 129 197 163 16 252 122 36 110 153 68 20 132 201 289 274 206 193 43 29 25 44 67 83
345 327 329 164 156 169 198 223 246 273 344 274 262 234 200 164 138 152 171 88 81 44 98 126 120 266 42 27 155 46 88 53 106 112 154 162 254 290 112 97 97 58 73 81 79
347 322 56 165 287 195 214 206 264 276 311 262 248 205 180 166 121 130 132 70 117 61 75 352 121 141 113 308 260 88 168 140 131 198 110 140 266 332 103 100 100 104 92 84 80
322 278 338 211 287 296 305 266 291 281 230 356 295 304 147 135 112 113 113 4 102 90 167 198 328 62 355 3 12 90 128 118 106 97 189 161 245 167 110 88 85 124 113 91 64
308 314 325 28 67 345 323 288 312 322 80 89 72 327 62 23 12 119 101 28 45 98 90 100 86 149 185 164 158 138 122 124 114 140 192 212 242 210 149 152 129 121 115 50 3
262 268 32 319 342 308 291 295 295 326 8 67 61 59 60 46 13 100 83 97 44 6 50 85 121 121 124 106 115 213 227 195 186 189 179 211 217 240 211 186 148 56 234 307 331
287 326 343 285 295 280 16 320 319 353 349 358 134 98 89 211 273 175 120 117 135 22 61 19 115 90 66 55 62 240 235 225 231 228 243 235 251 240 133 130 27 330 297 305 332
317 316 300 294 317 347 155 306 289 108 353 348 120 109 102 236 73 96 94 105 137 125 97 81 127 104 221 355 326 289 239 219 159 93 208 216 245 154 56 359 330 314 308 317 336